TimeMST,TemperatureF,Dew PointF,Humidity,Sea Level PressureIn,VisibilityMPH,Wind Direction,Wind SpeedMPH,Gust SpeedMPH,PrecipitationIn,Events,Conditions,WindDirDegrees,DateUTC
12:48 AM,10.4,6.8,85,30.22,9.0,NW,19.6,28.8,0.00,Snow,Light Snow,310,2013-03-05 07:48:00
12:53 AM,10.9,6.1,81,30.36,9.0,NW,20.7,28.8,0.00,Snow,Light Snow,310,2013-03-05 07:53:00
2:13 AM,10.4,5.0,79,30.25,8.0,NW,18.4,-,0.00,Snow,Light Snow,320,2013-03-05 09:13:00
2:43 AM,10.4,5.0,79,30.26,5.0,NW,16.1,27.6,0.00,Snow,Light Snow,320,2013-03-05 09:43:00
2:53 AM,10.0,5.0,80,30.42,4.0,NW,15.0,23.0,0.00,Snow,Light Snow,310,2013-03-05 09:53:00
3:53 AM,10.9,6.1,81,30.43,5.0,NW,15.0,-,0.00,Snow,Light Snow,310,2013-03-05 10:53:00
4:18 AM,10.4,6.8,85,30.29,5.0,NW,18.4,-,0.00,Snow,Light Snow,310,2013-03-05 11:18:00
4:53 AM,10.9,6.1,81,30.45,6.0,NW,13.8,-,0.00,Snow,Light Snow,310,2013-03-05 11:53:00
6:53 AM,10.9,7.0,84,30.47,4.0,NNW,17.3,-,0.00,Snow,Light Snow,330,2013-03-05 13:53:00
7:48 AM,10.4,6.8,85,30.33,3.0,NNW,13.8,-,0.00,Snow,Light Snow,330,2013-03-05 14:48:00
7:53 AM,10.9,7.0,84,30.48,3.0,NNW,13.8,-,0.00,Snow,Light Snow,330,2013-03-05 14:53:00
8:09 AM,12.2,6.8,79,30.33,2.0,NNW,13.8,-,0.00,Snow,Light Snow,330,2013-03-05 15:09:00
8:53 AM,14.0,8.1,77,30.50,2.0,NW,11.5,-,0.00,Snow,Light Snow,320,2013-03-05 15:53:00
9:04 AM,14.0,8.6,79,30.34,1.8,NNW,9.2,-,0.00,Snow,Light Snow,340,2013-03-05 16:04:00
9:15 AM,14.0,8.6,79,30.34,2.0,NNW,13.8,-,0.00,Snow,Light Snow,330,2013-03-05 16:15:00
9:27 AM,15.8,8.6,73,30.35,3.0,NW,9.2,-,0.00,Snow,Light Snow,320,2013-03-05 16:27:00
9:38 AM,15.8,10.4,79,30.35,2.5,NW,10.4,-,0.00,Snow,Light Snow,310,2013-03-05 16:38:00
9:53 AM,16.0,10.0,77,30.51,2.0,WNW,11.5,-,0.00,Snow,Light Snow,300,2013-03-05 16:53:00
10:22 AM,17.6,10.4,73,30.34,1.8,NNW,9.2,-,0.00,Snow,Light Snow,330,2013-03-05 17:22:00
10:49 AM,17.6,10.4,73,30.35,2.5,NNW,10.4,-,0.00,Snow,Light Snow,340,2013-03-05 17:49:00
10:53 AM,18.0,12.0,78,30.50,2.5,NNW,10.4,-,0.00,Snow,Light Snow,340,2013-03-05 17:53:00
11:35 AM,19.4,12.2,74,30.34,3.0,NNW,11.5,-,0.00,Snow,Light Snow,330,2013-03-05 18:35:00
11:53 AM,18.0,10.9,74,30.49,5.0,NNW,6.9,-,0.00,,Haze,330,2013-03-05 18:53:00
12:53 PM,19.0,12.0,74,30.49,7.0,NW,4.6,-,0.00,,Overcast,320,2013-03-05 19:53:00
1:48 PM,21.2,14.0,74,30.31,10.0,North,6.9,-,N/A,,Partly Cloudy,10,2013-03-05 20:48:00
1:53 PM,21.0,12.9,71,30.45,10.0,North,5.8,-,N/A,,Partly Cloudy,10,2013-03-05 20:53:00
2:53 PM,21.0,14.0,74,30.45,10.0,ENE,6.9,-,N/A,,Mostly Cloudy,70,2013-03-05 21:53:00
3:53 PM,19.9,14.0,78,30.44,10.0,ENE,6.9,-,N/A,,Overcast,60,2013-03-05 22:53:00
4:53 PM,19.9,12.9,74,30.43,10.0,Calm,Calm,-,N/A,,Overcast,0,2013-03-05 23:53:00
5:53 PM,19.0,12.0,74,30.43,10.0,Calm,Calm,-,N/A,,Overcast,0,2013-03-06 00:53:00
6:16 PM,19.4,12.2,74,30.29,10.0,East,3.5,-,N/A,,Overcast,100,2013-03-06 01:16:00
6:53 PM,19.0,12.9,77,30.43,10.0,SSE,3.5,-,N/A,,Overcast,150,2013-03-06 01:53:00
7:53 PM,19.0,12.9,77,30.43,10.0,East,5.8,-,N/A,,Overcast,100,2013-03-06 02:53:00
8:48 PM,17.6,12.2,79,30.27,10.0,ESE,8.1,-,N/A,,Overcast,110,2013-03-06 03:48:00
8:53 PM,18.0,12.9,81,30.42,10.0,ESE,6.9,-,N/A,,Overcast,110,2013-03-06 03:53:00
9:53 PM,15.1,12.0,88,30.41,10.0,ESE,8.1,-,N/A,,Overcast,110,2013-03-06 04:53:00
10:17 PM,14.0,10.4,86,30.26,10.0,ESE,10.4,-,N/A,,Scattered Clouds,110,2013-03-06 05:17:00
10:53 PM,12.9,9.0,84,30.40,10.0,SE,9.2,-,N/A,,Clear,130,2013-03-06 05:53:00
11:53 PM,10.9,8.1,88,30.40,10.0,ESE,6.9,-,N/A,,Clear,120,2013-03-06 06:53:00